Regional Weather Roundup
Issued by NWS Cleveland, OH

Home | Current Version | Previous Version | Graphics & Text | Print | Product List | Glossary On
Versions: 1 2 3 4 5 6 7 8 9 10 11 12 13 14 15 16 17 18 19 20 21 22 23 24 25 26 27 28 29 30 31 32 33 34 35 36 37 38 39 40 41 42 43 44 45 46 47 48 49 50
000
ASUS41 KCLE 280310
RWRCLE
OHIO REGIONAL WEATHER ROUNDUP
NATIONAL WEATHER SERVICE CLEVELAND, OH
1100 PM EDT SAT MAY 27 2017

NOTE: "FAIR" INDICATES FEW OR NO CLOUDS BELOW 12,000 FEET WITH NO
SIGNIFICANT WEATHER AND/OR OBSTRUCTIONS TO VISIBILITY.

OHZ001>008-015>018-024>027-034-035-043-044-280400-
   NORTHWEST OHIO

CITY           SKY/WX    TMP DP  RH WIND       PRES   REMARKS
DEFIANCE       CLOUDY    63  54  72 NE5       29.87F
FINDLAY        PTCLDY    65  51  60 E7        29.86F
TOLEDO EXPRESS CLOUDY    64  55  72 E6        29.87F
TOLEDO EXEC    CLOUDY    65  55  70 E3        29.89S
LIMA           CLOUDY    63  58  83 E9        29.86F
$$

OHZ009>014-019>023-028>033-038-089-280400-
   NORTHEAST OHIO

CITY           SKY/WX    TMP DP  RH WIND       PRES   REMARKS
CLE-HOPKINS    MOCLDY    68  51  54 E8        29.92R
CLE-LAKEFRONT  CLEAR     63  55  75 CALM      29.90R
CUY CO. ARPT   PTCLDY    63  52  67 SE5       29.92R
LORAIN-ELYRIA  CLOUDY    63  53  70 E3        29.91R
ASHTABULA      CLEAR     55  54  96 CALM      29.93R
AKRON-CANTON   PTCLDY    63  53  70 NE9       29.90R
WOOSTER        MOCLDY    64  55  72 NE5       29.91R
MANSFIELD      CLOUDY    64  55  72 NE5       29.90S
YOUNGSTOWN     MOCLDY    60  51  72 NE6       29.90F
$$

OHZ042-051>053-060>062-070>072-077>081-280400-
  SOUTHWEST OHIO

CITY           SKY/WX    TMP DP  RH WIND       PRES   REMARKS
CINC-COVINGTON CLOUDY    72  66  81 S14       29.85R
CINC-LUNKEN    CLOUDY    74  70  87 S10       29.84R
HAMILTON       CLOUDY    72  70  93 CALM      29.84R
DAYTON         CLOUDY    69  64  84 N5        29.85F
WRIGHT-PAT AFB MOCLDY    71  68  92 CALM      29.84S
DAYTON GENERAL PTCLDY    71  65  81 CALM      29.84R
WILMINGTON     CLOUDY    72  69  90 SE6       29.84S
$$

OHZ036-037-039>041-045>050-054>059-063>069-073>076-082>088-280400-
  CENTRAL AND SOUTHEAST OHIO

CITY           SKY/WX    TMP DP  RH WIND       PRES   REMARKS
COLUMBUS       CLOUDY    71  66  84 E6        29.84F
OSU AIRPORT    PTCLDY    68  65  90 NE6       29.84F
BOLTON FIELD   CLOUDY    71  65  83 E3        29.85F
RICKENBACK AFB CLOUDY    69  66  90 NE6       29.84S
NEWARK         PTCLDY    68  64  87 CALM      29.85F
MARION         CLOUDY    65  59  81 E8        29.87F
LANCASTER      CLOUDY    71  65  81 CALM      29.86S
ZANESVILLE     PTCLDY    68  64  87 NE3       29.86F
NEW PHILLY     NOT AVBL
$$




USA.gov is the U.S. government's official web portal to all federal, state and local government web resources and services.